Weather History for Cape Girardeau, MO

Change the Weather History Date:

Thursday, May 23, 2013

  Actual Average Record
Temperature  
Mean Temperature 18 °C 21 °C  
Max Temperature 24 °C 27 °C 33 °C (1970)
Min Temperature 12 °C 14 °C 3 °C (1963)
Degree Days  
Heating Degree Days 0 1  
Month to date heating degree days 83 61  
Since 1 July heating degree days 4349 4379  
Cooling Degree Days 0 5  
Month to date cooling degree days 81 74  
Year to date cooling degree days 106 105  
Growing Degree Days 14 (Base 50)    
Moisture  
Dew Point 12 °C    
Average Humidity 75    
Maximum Humidity 100    
Minimum Humidity 49    
Precipitation  
Precipitation 0.00 mm 4.06 mm 6.22 mm (1966)
Month to date precipitation 2.25 4.26  
Year to date precipitation 15.07 19.90  
Sea Level Pressure  
Sea Level Pressure 1017 hPa    
Wind  
Wind Speed 16 km/h (NW)    
Max Wind Speed 35 km/h    
Max Gust Speed 40 km/h    
Visibility 16 kilometers    
Events      
T = Trace of Precipitation, MM = Missing Value Source: NWS Daily Summary

Daily Weather History Graph

Daily Weather History Graph

Search for Another Location

Airport:

Trip Planner

Search our weather history database for the weather conditions in past years. The results will help you decide how hot, cold, wet, or windy it might be!

Date:

Astronomy

May. 23, 2013 Rise Set
Actual Time 5:43 AM CDT 8:06 PM CDT
Civil Twilight 5:14 AM CDT 8:36 PM CDT
Nautical Twilight 4:37 AM CDT 9:13 PM CDT
Astronomical Twilight 3:57 AM CDT 9:53 PM CDT
Moon 6:40 PM CDT (5/23) 4:26 AM CDT (5/23)
Length of Visible Light 15h 22m
Length of Day
14h 22m
Waxing Gibbous, 97% of the Moon is Illuminated
May 23
Waxing Gibbous
May 24
Full
May 31
Last Quarter
Jun 8
New
Jun 16
First Quarter

Hourly Weather History & Observations

Time (CDT) Temp. Dew Point Humidity Pressure Visibility Wind Dir Wind Speed Gust Speed Precip Events Conditions
12:53 AM 19.4 °C 13.3 °C 68% 1012.6 hPa 16.1 km NW 11.1 km/h / 3.1 m/s - N/A   Overcast
1:53 AM 17.8 °C 12.8 °C 73% 1012.6 hPa 16.1 km NW 7.4 km/h / 2.1 m/s - N/A   Scattered Clouds
2:53 AM 15.0 °C 12.2 °C 83% 1012.6 hPa 16.1 km West 5.6 km/h / 1.5 m/s - N/A   Clear
3:53 AM 14.4 °C 12.2 °C 87% 1012.9 hPa 16.1 km West 5.6 km/h / 1.5 m/s - N/A   Clear
4:53 AM 13.3 °C 11.7 °C 90% 1013.1 hPa 16.1 km Calm Calm - N/A   Clear
5:53 AM 12.2 °C 11.7 °C 97% 1014.0 hPa 16.1 km WSW 5.6 km/h / 1.5 m/s - N/A   Clear
6:53 AM 15.0 °C 13.3 °C 90% 1014.7 hPa 16.1 km Calm Calm - N/A   Clear
7:53 AM 17.2 °C 13.9 °C 81% 1015.3 hPa 16.1 km West 11.1 km/h / 3.1 m/s - N/A   Clear
8:53 AM 18.9 °C 13.3 °C 70% 1015.8 hPa 16.1 km West 13.0 km/h / 3.6 m/s - N/A   Mostly Cloudy
9:53 AM 20.6 °C 11.7 °C 57% 1015.6 hPa 16.1 km NW 18.5 km/h / 5.1 m/s - N/A   Scattered Clouds
10:53 AM 20.6 °C 11.7 °C 57% 1016.0 hPa 16.1 km NNW 18.5 km/h / 5.1 m/s - N/A   Overcast
11:53 AM 22.2 °C 13.3 °C 57% 1017.1 hPa 16.1 km WNW 14.8 km/h / 4.1 m/s - N/A   Scattered Clouds
12:53 PM 22.8 °C 11.7 °C 49% 1016.6 hPa 16.1 km NW 27.8 km/h / 7.7 m/s 38.9 km/h / 10.8 m/s N/A   Partly Cloudy
1:53 PM 23.3 °C 12.2 °C 50% 1017.0 hPa 16.1 km NW 22.2 km/h / 6.2 m/s 33.3 km/h / 9.3 m/s N/A   Scattered Clouds
2:53 PM 22.8 °C 11.7 °C 49% 1017.4 hPa 16.1 km WNW 22.2 km/h / 6.2 m/s 35.2 km/h / 9.8 m/s N/A   Overcast
3:53 PM 22.8 °C 12.2 °C 51% 1017.5 hPa 16.1 km NW 20.4 km/h / 5.7 m/s - N/A   Mostly Cloudy
4:53 PM 23.3 °C 12.8 °C 52% 1017.7 hPa 16.1 km North 25.9 km/h / 7.2 m/s - N/A   Scattered Clouds
5:53 PM 22.2 °C 12.8 °C 55% 1018.1 hPa 16.1 km North 20.4 km/h / 5.7 m/s - N/A   Partly Cloudy
6:53 PM 20.6 °C 12.2 °C 58% 1018.6 hPa 16.1 km North 29.6 km/h / 8.2 m/s 40.7 km/h / 11.3 m/s N/A   Scattered Clouds
7:53 PM 19.4 °C 13.3 °C 68% 1019.7 hPa 16.1 km North 31.5 km/h / 8.7 m/s 37.0 km/h / 10.3 m/s N/A   Mostly Cloudy
8:53 PM 17.8 °C 12.8 °C 73% 1020.1 hPa 16.1 km North 14.8 km/h / 4.1 m/s - N/A   Overcast
9:53 PM 16.7 °C 11.7 °C 72% 1020.6 hPa 16.1 km NNE 16.7 km/h / 4.6 m/s 38.9 km/h / 10.8 m/s N/A   Mostly Cloudy
10:02 PM 17.0 °C 12.0 °C 72% 1020.9 hPa 16.1 km NNE 18.5 km/h / 5.1 m/s - N/A   Mostly Cloudy
10:53 PM 16.1 °C 10.6 °C 70% 1021.5 hPa 16.1 km NNE 20.4 km/h / 5.7 m/s - N/A   Scattered Clouds
11:53 PM 15.0 °C 10.0 °C 72% 1022.0 hPa 16.1 km NNE 18.5 km/h / 5.1 m/s - N/A   Clear